Weather reports worldwide

Advertisment
Yeovilton, United Kingdom (3853): temperature & dewpoint: 19.09.2018 07:00:00 - 25.09.2018 07:00:00 (BST)Yeovilton, United Kingdom (3853): temperature -20cm & temperature -100cm: 19.09.2018 07:00:00 - 25.09.2018 07:00:00 (BST)Yeovilton, United Kingdom (3853): wind speed & gusts: 19.09.2018 07:00:00 - 25.09.2018 07:00:00 (BST)Yeovilton, United Kingdom (3853): wind direction: 19.09.2018 07:00:00 - 25.09.2018 07:00:00 (BST)Yeovilton, United Kingdom (3853): reduced air pressure: 19.09.2018 07:00:00 - 25.09.2018 07:00:00 (BST)Yeovilton, United Kingdom (3853): visibility: 19.09.2018 07:00:00 - 25.09.2018 07:00:00 (BST)Yeovilton, United Kingdom (3853): sunshine duration: 19.09.2018 07:00:00 - 25.09.2018 07:00:00 (BST)Yeovilton, United Kingdom (3853): precipitation: 19.09.2018 07:00:00 - 25.09.2018 07:00:00 (BST)
Date & Time tt [°C] td [°C] tt -20cm [°C] tt -100cm [°C] ff [km/h] ff [kn] fx [km/h] fx [kn] dd ppp [hPa] vv [km] sd [min] rr [mm]
25.09.2018 07:00:00 - - - - - - - - - - - - -
25.09.2018 06:00:00 0,9 0,4 - - 4 2 - - E 1038,3 2,0 0 0,0
25.09.2018 05:00:00 1,8 1,3 - - 0 0 - - N 1038,4 10 0 0,0
25.09.2018 04:00:00 1,9 1,4 - - 2 1 - - W 1038,9 10 0 0,0
25.09.2018 03:00:00 2,4 1,6 - - 4 2 - - E 1038,8 10 0 0,0
25.09.2018 02:00:00 3,4 2,7 - - 4 2 - - E 1039,1 10 0 0,0
25.09.2018 01:00:00 3,6 2,8 - - 4 2 - - SE 1039,5 10 - 0,0
25.09.2018 00:00:00 5,1 4,3 - - 2 1 - - SE 1039,5 10 0 0,0
24.09.2018 23:00:00 5,3 4,1 - - 2 1 - - NE 1039,4 10 0 0,0
24.09.2018 22:00:00 6,8 5,1 - - 4 2 - - ESE 1038,9 10 0 0,0
24.09.2018 21:00:00 7,6 3,8 - - 4 2 - - SSE 1039,0 10 0 0,0
24.09.2018 20:00:00 10,9 4,7 - - 5 3 - - N 1038,8 10 0 0,0
24.09.2018 19:00:00 12,5 4,9 - - 9 5 - - NNW 1038,4 10 36 0,0
24.09.2018 18:00:00 14,2 3,3 - - 11 6 - - NNW 1038,3 10 60 0,0
24.09.2018 17:00:00 14,5 4,7 - - 15 8 - - N 1038,2 10 18 0,0
24.09.2018 16:00:00 14,6 4,1 - - 9 5 - - NE 1038,4 20 36 0,0
24.09.2018 15:00:00 14,1 4,8 - - 13 7 - - N 1038,8 20 36 0,0
24.09.2018 14:00:00 13,9 5,4 - - 9 5 - - NNW 1039,1 25 18 0,0
24.09.2018 13:00:00 13,6 3,9 - - 11 6 - - NNW 1039,6 10 42 0,0
24.09.2018 12:00:00 13,7 7,0 - - 8 4 - - N 1039,6 10 60 0,0
24.09.2018 11:00:00 12,0 8,0 - - 11 6 - - NNW 1039,4 10 60 0,0
24.09.2018 10:00:00 9,9 7,2 15,0 16,2 8 4 - - W 1039,5 10 60 0,0
24.09.2018 09:00:00 6,9 6,2 - - 2 1 - - SSE 1038,7 10 60 0,0
24.09.2018 08:00:00 2,8 2,4 - - 2 1 - - E 1038,2 10 24 0,0
24.09.2018 07:00:00 2,4 1,8 - - 2 1 - - SE 1037,4 20 0 0,0
24.09.2018 06:00:00 2,2 1,4 - - 8 4 - - SSE 1037,0 10 0 0,0
24.09.2018 05:00:00 2,6 1,7 - - 2 1 - - E 1036,8 10 0 0,0
24.09.2018 04:00:00 3,3 2,4 - - 5 3 - - SSW 1036,4 10 0 0,0
24.09.2018 03:00:00 4,7 3,7 - - 4 2 - - WNW 1035,9 10 0 0,0
24.09.2018 02:00:00 5,2 3,9 - - 9 5 - - SW 1035,4 10 0 0,0
24.09.2018 01:00:00 5,8 3,6 - - 9 5 - - S 1034,5 50 - 0,0
24.09.2018 00:00:00 8,4 5,1 - - 16 9 - - NNW 1033,3 50 0 0,0
23.09.2018 23:00:00 8,3 4,4 - - 8 4 - - W 1032,9 50 0 0,0
23.09.2018 22:00:00 8,6 4,3 - - 5 3 - - WSW 1031,7 50 0 0,0
23.09.2018 21:00:00 7,8 3,6 - - 4 2 - - WSW 1030,4 45 0 0,0
23.09.2018 20:00:00 10,8 4,9 - - 9 5 - - WNW 1029,0 50 0 0,0
23.09.2018 19:00:00 13,0 4,3 - - 22 12 - - NW 1027,5 10 60 0,0
23.09.2018 18:00:00 14,2 3,1 - - 26 14 - - NW 1025,8 40 60 0,0
23.09.2018 17:00:00 15,2 5,8 - - 29 16 - - NW 1024,5 50 48 0,0
23.09.2018 16:00:00 14,5 6,7 - - 21 11 - - NNW 1023,9 40 48 0,0
23.09.2018 15:00:00 13,6 7,0 - - 22 12 - - NW 1023,2 30 60 0,0
23.09.2018 14:00:00 12,6 7,0 - - 26 14 - - NW 1022,2 50 54 0,0
23.09.2018 13:00:00 11,2 6,9 - - 21 11 - - N 1021,3 35 36 0,0
23.09.2018 12:00:00 9,7 7,4 - - 16 9 - - N 1020,4 50 0 0,2
23.09.2018 11:00:00 9,7 6,4 - - 24 13 52 28 N 1018,7 50 0 0,2
23.09.2018 10:00:00 9,8 8,2 16,0 16,7 26 14 - - N 1017,0 10 0 0,6
23.09.2018 09:00:00 9,5 8,6 - - 15 8 - - N 1015,8 16 0 4,2
23.09.2018 08:00:00 9,8 9,2 - - 15 8 - - NNW 1014,8 5 0 2,4
23.09.2018 07:00:00 10,1 9,6 - - 18 10 - - NE 1013,6 7 0 1,6
23.09.2018 06:00:00 10,4 10,1 - - 16 9 - - NNE 1013,8 3,1 0 0,2
23.09.2018 05:00:00 10,6 10,2 - - 13 7 - - N 1013,5 3,0 0 0,4
23.09.2018 04:00:00 10,6 10,2 - - 9 5 - - NNE 1013,4 3,1 0 0,0
23.09.2018 03:00:00 10,9 10,5 - - 13 7 - - NNE 1013,8 4,4 0 0,0
23.09.2018 02:00:00 10,9 10,5 - - 11 6 - - NNE 1013,7 3,0 0 0,4
23.09.2018 01:00:00 11,2 10,7 - - 9 5 - - N 1013,5 4,7 - 0,2
23.09.2018 00:00:00 11,3 10,7 - - 9 5 - - ENE 1013,2 4,2 0 0,4
22.09.2018 23:00:00 11,4 10,3 - - 11 6 - - NE 1012,8 6 0 0,0
22.09.2018 22:00:00 11,5 10,2 - - 16 9 - - ENE 1012,4 10 0 0,0
22.09.2018 21:00:00 11,4 10,1 - - 22 12 - - ENE 1012,0 50 0 0,0
22.09.2018 20:00:00 11,1 10,1 - - 24 13 - - NE 1011,6 10 0 0,0
22.09.2018 19:00:00 11,0 10,1 - - 22 12 - - ENE 1011,5 10 0 0,2
22.09.2018 18:00:00 10,8 10,1 - - 28 15 - - ENE 1011,6 3,1 0 1,2
22.09.2018 17:00:00 11,1 10,1 - - 26 14 - - E 1012,5 4,7 0 0,8
22.09.2018 16:00:00 11,1 10,2 - - 24 13 - - E 1013,9 7 0 0,4
22.09.2018 15:00:00 11,0 9,9 - - 21 11 - - E 1015,2 8 0 0,4
22.09.2018 14:00:00 10,7 9,6 - - 22 12 - - E 1016,1 9 0 1,8
22.09.2018 13:00:00 10,6 9,5 - - 15 8 - - E 1017,8 13 0 1,4
22.09.2018 12:00:00 10,6 9,0 - - 11 6 - - ESE 1018,9 35 0 1,2
22.09.2018 11:00:00 10,9 8,8 - - 8 4 - - SSW 1020,1 14 0 0,8
22.09.2018 10:00:00 11,6 8,2 16,7 16,7 11 6 - - SSW 1019,8 20 0 0,0
22.09.2018 09:00:00 12,3 8,3 - - 13 7 - - SW 1019,3 35 0 0,0
22.09.2018 08:00:00 12,0 8,4 - - 11 6 - - SW 1019,5 35 0 0,0
22.09.2018 07:00:00 11,6 8,4 - - 8 4 - - SW 1019,7 10 0 0,0
22.09.2018 06:00:00 11,4 8,4 - - 8 4 - - S 1019,5 28 0 0,0
22.09.2018 05:00:00 11,5 8,2 - - 8 4 - - SSW 1019,3 29 0 0,0
22.09.2018 04:00:00 11,8 8,3 - - 9 5 - - SW 1019,8 28 0 0,0
22.09.2018 03:00:00 11,6 8,2 - - 9 5 - - SW 1019,9 22 0 0,0
22.09.2018 02:00:00 11,5 8,3 - - 5 3 - - SW 1019,7 28 0 0,0
22.09.2018 01:00:00 11,9 8,3 - - 13 7 - - WSW 1019,8 20 - 0,0
22.09.2018 00:00:00 11,1 8,3 - - 9 5 - - SSW 1019,8 26 0 0,0
21.09.2018 23:00:00 11,8 8,3 - - 13 7 - - WSW 1019,2 19 0 0,0
21.09.2018 22:00:00 11,5 7,9 - - 11 6 - - SW 1018,9 24 0 0,0
21.09.2018 21:00:00 11,8 7,4 - - 11 6 - - SW 1018,4 35 0 0,0
21.09.2018 20:00:00 12,8 7,5 - - 16 9 - - W 1017,7 35 0 0,0
21.09.2018 19:00:00 13,9 6,9 - - 22 12 - - W 1016,6 10 18 0,0
21.09.2018 18:00:00 14,8 6,9 - - 26 14 - - W 1015,8 50 6 0,0
21.09.2018 17:00:00 15,3 7,5 - - 28 15 52 28 W 1015,0 30 36 0,0
21.09.2018 16:00:00 15,4 7,6 - - 41 22 70 38 W 1014,6 10 18 0,0
21.09.2018 15:00:00 15,2 7,0 - - 34 18 65 35 W 1013,6 10 12 0,0
21.09.2018 14:00:00 15,8 6,6 - - 41 22 61 33 W 1012,9 10 18 0,0
21.09.2018 13:00:00 16,1 5,9 - - 41 22 61 33 WSW 1011,8 10 54 0,0
21.09.2018 12:00:00 14,8 6,6 - - 37 20 63 34 W 1011,3 10 48 0,0
21.09.2018 11:00:00 14,1 6,5 - - 29 16 46 25 W 1010,7 10 60 0,0
21.09.2018 10:00:00 12,7 7,0 17,7 16,7 24 13 - - WSW 1010,3 10 60 0,0
21.09.2018 09:00:00 11,6 6,9 - - 18 10 - - WSW 1009,3 10 60 0,0
21.09.2018 08:00:00 10,2 7,0 - - 16 9 - - WSW 1008,4 10 36 0,0
21.09.2018 07:00:00 9,6 6,5 - - 15 8 - - W 1007,2 10 0 0,0
21.09.2018 06:00:00 9,8 7,0 - - 18 10 - - W 1006,1 10 0 0,0
21.09.2018 05:00:00 10,5 7,8 - - 34 18 54 29 W 1005,0 10 0 0,0
21.09.2018 04:00:00 11,5 8,8 - - 26 14 - - W 1003,2 10 0 0,0
21.09.2018 03:00:00 12,2 9,0 - - 21 11 46 25 W 1002,1 10 0 0,0
21.09.2018 02:00:00 13,7 9,7 - - 18 10 52 28 WSW 1000,8 20 0 0,2
21.09.2018 01:00:00 14,7 10,2 - - 34 18 59 32 W 1000,1 35 - 0,0
21.09.2018 00:00:00 17,7 15,5 - - 31 17 72 39 SW 997,9 30 0 1,2
20.09.2018 23:00:00 17,4 16,9 - - 50 27 81 44 SSW 997,6 3,0 0 2,6
20.09.2018 22:00:00 17,0 16,3 - - 50 27 76 41 SSW 999,6 1,9 0 3,6
20.09.2018 21:00:00 17,9 16,3 - - 50 27 81 44 SSW 1001,1 9 0 0,4
20.09.2018 20:00:00 18,6 16,0 - - 54 29 76 41 SSW 1002,4 8 0 0,0
20.09.2018 19:00:00 18,2 16,2 - - 42 23 72 39 SSW 1003,9 5 0 0,0
20.09.2018 18:00:00 18,3 16,1 - - 37 20 57 31 SSW 1005,2 8 0 0,0
20.09.2018 17:00:00 18,3 15,9 - - 44 24 63 34 SSW 1006,4 8 0 0,0
20.09.2018 16:00:00 18,2 16,2 - - 42 23 65 35 SSW 1007,2 8 0 0,0
20.09.2018 15:00:00 18,2 15,6 - - 37 20 57 31 SSW 1008,3 10 0 0,0
20.09.2018 14:00:00 18,3 15,7 - - 37 20 61 33 SSW 1008,9 10 0 0,0
20.09.2018 13:00:00 17,9 15,5 - - 37 20 61 33 SSW 1009,4 8 0 0,0
20.09.2018 12:00:00 17,8 15,9 - - 37 20 57 31 SSW 1009,8 8 0 0,0
20.09.2018 11:00:00 17,5 15,7 - - 35 19 55 30 SSW 1010,4 10 0 0,0
20.09.2018 10:00:00 17,5 16,0 18,2 16,7 28 15 - - SSW 1010,9 6 0 0,0
20.09.2018 09:00:00 17,2 15,9 - - 24 13 - - SSW 1011,2 4,0 0 0,0
20.09.2018 08:00:00 16,9 15,8 - - 26 14 - - SSW 1011,2 4,0 0 0,0
20.09.2018 07:00:00 16,8 15,6 - - 31 17 - - SSW 1011,2 4,0 0 0,0
20.09.2018 06:00:00 17,3 15,2 - - 24 13 46 25 SSW 1011,2 10 0 0,0
20.09.2018 05:00:00 17,2 15,4 - - 28 15 - - SSW 1011,4 10 0 0,0
20.09.2018 04:00:00 17,2 15,6 - - 24 13 - - SSW 1011,9 10 0 0,0
20.09.2018 03:00:00 17,2 15,7 - - 22 12 - - SSW 1012,1 10 0 0,0
20.09.2018 02:00:00 16,5 15,9 - - 21 11 - - SSW 1012,5 10 0 0,2
20.09.2018 01:00:00 15,0 14,4 - - 8 4 - - SSW 1013,3 4,0 - 0,0
20.09.2018 00:00:00 15,1 14,4 - - 9 5 - - SSW 1013,8 3,5 0 0,2
19.09.2018 23:00:00 15,1 14,0 - - 9 5 - - SW 1014,3 4,0 0 0,2
19.09.2018 22:00:00 15,6 13,8 - - 9 5 - - SW 1014,5 10 0 0,0
19.09.2018 21:00:00 15,5 13,9 - - 9 5 - - W 1014,6 10 0 0,0
19.09.2018 20:00:00 15,6 13,9 - - 8 4 - - SW 1014,2 10 0 0,0
19.09.2018 19:00:00 15,9 14,4 - - 22 12 - - W 1013,8 2,5 0 1,6
19.09.2018 18:00:00 19,2 15,1 - - 21 11 46 25 SW 1012,9 6 0 0,0
19.09.2018 17:00:00 19,7 14,9 - - 29 16 57 31 SW 1012,3 10 24 0,0
19.09.2018 16:00:00 20,7 15,6 - - 37 20 57 31 SSW 1011,9 10 18 0,0
19.09.2018 15:00:00 20,4 14,8 - - 34 18 59 32 SSW 1011,9 10 24 0,0
19.09.2018 14:00:00 21,4 15,0 - - 37 20 63 34 SSW 1011,8 10 54 0,0
19.09.2018 13:00:00 21,2 14,5 - - 35 19 63 34 SSW 1011,4 10 60 0,0
19.09.2018 12:00:00 20,3 15,3 - - 35 19 59 32 SSW 1011,4 10 42 0,0
19.09.2018 11:00:00 20,6 15,9 - - 41 22 61 33 SSW 1011,2 10 36 0,0
19.09.2018 10:00:00 18,9 14,7 18,0 16,7 37 20 55 30 SSW 1010,9 10 24 0,0
19.09.2018 09:00:00 18,3 15,3 - - 22 12 - - SSW 1011,0 10 0 0,0
19.09.2018 08:00:00 17,4 15,1 - - 24 13 - - SSW 1011,0 10 0 0,0
19.09.2018 07:00:00 17,2 14,9 - - 24 13 - - SSW 1011,0 10 0 0,0

tt = temperature
td = dewpoint
tt -20cm = temperature -20cm
tt -100cm = temperature -100cm
ff = wind speed
fx = gusts
dd = wind direction
ppp = reduced air pressure
vv = visibility
sd = sunshine duration
rr = precipitation

Next stations